DETTK EDKL-EDKB

Flight info

Callsign DETTK
Flight time 0h 11m
Altitude
Route
Aircraft C172

Departure

Time 2026-04-26 18:24
Airport Leverkusen Airfield (EDKL)

Arrival

Time 2026-04-26 18:35
Airport Bonn-Hangelar Airfield (EDKB)
Time Latitude Longitude Altitude Speed Heading
2026-04-26 18:24 50.82109 7.11272 818 ft 101 kts 212°
2026-04-26 18:24 50.81508 7.10750 884 ft 97 kts 213°
2026-04-26 18:24 50.80926 7.10229 917 ft 99 kts 213°
2026-04-26 18:25 50.80311 7.09697 927 ft 100 kts 212°
2026-04-26 18:25 50.79688 7.09202 951 ft 100 kts 209°
2026-04-26 18:25 50.79043 7.08739 963 ft 102 kts 208°
2026-04-26 18:25 50.78400 7.08290 946 ft 102 kts 207°
2026-04-26 18:26 50.77756 7.07828 964 ft 103 kts 207°
2026-04-26 18:26 50.77098 7.07423 970 ft 101 kts 195°
2026-04-26 18:26 50.76426 7.07503 1035 ft 95 kts 158°
2026-04-26 18:26 50.75843 7.07984 1056 ft 95 kts 146°
2026-04-26 18:27 50.75391 7.08719 1110 ft 94 kts 119°
2026-04-26 18:27 50.75079 7.09651 1139 ft 98 kts 110°
2026-04-26 18:27 50.74956 7.10700 1141 ft 100 kts 87°
2026-04-26 18:27 50.75044 7.11807 1127 ft 102 kts 77°
2026-04-26 18:28 50.75177 7.12889 1125 ft 99 kts 75°
2026-04-26 18:28 50.75222 7.13982 1110 ft 102 kts 94°
2026-04-26 18:28 50.75098 7.15059 1104 ft 99 kts 99°
2026-04-26 18:28 50.74974 7.16102 1123 ft 96 kts 97°
2026-04-26 18:29 50.74881 7.17117 1096 ft 90 kts 94°
2026-04-26 18:29 50.74825 7.18062 1026 ft 84 kts 84°
2026-04-26 18:29 50.74996 7.18891 952 ft 81 kts 48°
2026-04-26 18:29 50.75382 7.19545 835 ft 81 kts 31°
2026-04-26 18:30 50.75906 7.19781 741 ft 77 kts
2026-04-26 18:30 50.76255 7.19341 684 ft 77 kts 283°
2026-04-26 18:30 50.76426 7.18558 535 ft 68 kts 292°
2026-04-26 18:30 50.76565 7.17844 414 ft 70 kts 294°
2026-04-26 18:31 50.76729 7.17080 245 ft 75 kts 293°
2026-04-26 18:31 50.76873 7.16331 321 ft 74 kts 293°
2026-04-26 18:31 50.77051 7.15539 549 ft 78 kts 295°
2026-04-26 18:31 50.77238 7.14656 735 ft 87 kts 295°
2026-04-26 18:32 50.77171 7.13791 1082 ft 90 kts 228°
2026-04-26 18:32 50.76517 7.13488 1167 ft 105 kts 184°
2026-04-26 18:32 50.75779 7.13600 1175 ft 107 kts 168°
2026-04-26 18:32 50.75150 7.14112 1220 ft 97 kts 120°
2026-04-26 18:33 50.75026 7.15150 1139 ft 100 kts 94°
2026-04-26 18:33 50.74929 7.16248 1123 ft 102 kts 97°
2026-04-26 18:33 50.74837 7.17301 1107 ft 92 kts 94°
2026-04-26 18:33 50.74818 7.18232 1033 ft 81 kts 75°
2026-04-26 18:34 50.75064 7.19003 907 ft 79 kts 46°
2026-04-26 18:34 50.75472 7.19543 816 ft 77 kts 19°
2026-04-26 18:34 50.75962 7.19515 734 ft 71 kts 331°
2026-04-26 18:34 50.76302 7.18954 651 ft 71 kts 307°
2026-04-26 18:35 50.76475 7.18223 461 ft 70 kts 297°
2026-04-26 18:35 50.76626 7.17505 329 ft 69 kts 297°
2026-04-26 18:35 50.76788 7.16802 203 ft 61 kts 296°
2026-04-26 18:35 50.76888 7.16345 207 ft 28 kts 284°
2026-04-26 18:36 50.76871 7.16196 207 ft 12 kts 204°
2026-04-26 18:36 50.76814 7.16241 211 ft 11 kts 109°